Flag for Germany Weather past 2 weeks in Munich, Bavaria, Germany

Now
73 °F

Sunny.


Feels Like: 77 °F
Forecast: 54 / 74 °F
Wind: 3 mph from North

Location: Oberpfaffenhofen

Current Time: Sep 19, 2014 at 4:02:59 PM

Latest Report: Sep 19, 2014 at 3:20 PM


Visibility: 10 mi

Pressure: 29.98 "Hg

Humidity: 57%

Dew point: 57 °F

Location of MunichLocation

Historic Weather in Munich — Graph

°F

Munich temperature yesterday

Maximum temperature yesterday: 75 °F (at 2:50 PM)
Minimum temperature yesterday: 48 °F (at 7:50 AM)
Average temperature yesterday: 67 °F

Past Weeks' High & Low Weather Summary

 TemperatureHumidityPressure
High77 °F (Sep 8, 3:20 PM)100% (Sep 5, 7:50 AM)30.15 "Hg (Sep 5, 7:50 AM)
Low48 °F (Sep 12, 6:50 AM)44% (Sep 8, 5:20 PM)29.92 "Hg (Sep 17, 3:50 PM)
Average61 °F79%30.01 "Hg
* Reported Sep 4 2:20 PM — Sep 19 2:50 PM, Munich, Weather by CustomWeather, © 2014

Note: Actual official high and low records may vary slightly from our data, if they occured in-between our weather recording intervals... More about our weather records

Advertising

Munich weather history for previous 24 hours

 ConditionsComfort  
Time TempWeatherWind HumidityBarometerVisibility
2:50 PM
Sep 19
75 °FSunny.2 mph50%29.98 "Hg10 mi
2:20 PM73 °FSunny.2 mph53%29.98 "Hg10 mi
1:50 PM72 °FSunny.3 mph57%29.98 "Hg10 mi
1:20 PM70 °FPassing clouds.5 mph64%29.98 "HgN/A
12:50 PM72 °FSunny.2 mph61%30.01 "Hg10 mi
12:20 PM70 °FSunny.1 mph69%30.01 "Hg10 mi
11:50 AM70 °FSunny.2 mph64%30.01 "Hg10 mi
11:20 AM68 °FSunny.2 mph69%30.01 "Hg10 mi
10:50 AM70 °FSunny.5 mph64%30.01 "Hg10 mi
10:20 AM66 °FSunny.5 mph78%30.01 "Hg10 mi
9:50 AM66 °FSunny.5 mph73%30.01 "Hg10 mi
9:20 AM64 °FSunny.3 mph78%30.01 "Hg10 mi
8:50 AM59 °FSunny.7 mph88%30.01 "Hg10 mi
8:20 AM57 °FSunny.2 mph94%30.01 "Hg10 mi
7:50 AM54 °FClear.2 mph94%30.01 "Hg10 mi
7:20 AM52 °FClear.2 mph100%29.98 "Hg10 mi
6:50 AM52 °FClear.6 mph94%29.98 "Hg10 mi
6:50 PM
Sep 18
70 °FSunny.5 mph60%29.95 "Hg10 mi
6:20 PM70 °FSunny.7 mph60%29.92 "Hg10 mi
5:50 PM72 °FSunny.9 mph57%29.92 "Hg10 mi
5:20 PM73 °FSunny.9 mph53%29.92 "Hg10 mi
4:50 PM73 °FSunny.10 mph53%29.92 "Hg10 mi
4:20 PM75 °FSunny.10 mph50%29.92 "Hg10 mi
Weather by CustomWeather, © 2014

See weather overviewHow to use our weather pages